EW7771 Weather Reports


Display with metric or nautical units.
time (UTC)temp
F
wind
direction
speed
MPH
gust
MPH
rain 1hr
in
rain 24hr
in
rain mn
in
humidity
%
barometer
mb
20260504081929 54 186 0.0 0.0 0.00 0.00 0.00 82 1009.0
20260504081423 54 186 0.0 0.0 0.00 0.00 0.00 82 1009.0
20260504081146 54 186 0.0 0.0 0.00 0.00 0.00 83 1009.0
20260504080413 54 186 0.0 0.0 0.00 0.00 0.00 82 1009.0
20260504070255 55 186 0.0 0.0 0.00 0.00 0.00 81 1009.1
20260504060145 58 168 0.0 0.0 0.00 0.00 0.00 80 1009.0
20260504050541 61 168 0.0 0.0 0.00 0.00 0.00 75 1009.0
20260504045528 62 168 0.0 0.0 0.00 0.00 0.00 74 1009.0
20260504045245 62 168 0.0 0.0 0.00 0.00 0.00 73 1008.9
20260504044517 62 168 0.0 0.0 0.00 0.00 0.00 74 1008.9
20260504044226 63 168 0.0 0.0 0.00 0.00 0.00 72 1008.8
20260504043504 63 168 0.0 0.0 0.00 0.00 0.00 71 1008.8
20260504043221 64 168 0.0 0.0 0.00 0.00 0.00 70 1008.7
20260504042709 64 168 0.0 0.0 0.00 0.00 0.00 69 1008.7
20260504041943 65 168 0.0 0.0 0.00 0.00 0.00 68 1008.7
20260504041443 65 168 0.0 0.0 0.00 0.00 0.00 67 1008.5
20260504040939 66 168 0.0 0.0 0.00 0.00 0.00 65 1008.5
20260504040435 66 167 0.0 0.0 0.00 0.00 0.00 66 1008.4
20260504035936 66 167 0.0 0.0 0.00 0.00 0.00 65 1008.4
20260504035433 67 167 0.0 0.0 0.00 0.00 0.00 63 1008.3
20260504034933 67 167 0.0 0.0 0.00 0.00 0.00 63 1008.3
20260504034430 68 167 0.0 0.0 0.00 0.00 0.00 64 1008.4
20260504033928 68 194 0.0 0.0 0.00 0.00 0.00 61 1008.3
20260504033429 69 194 0.0 0.0 0.00 0.00 0.00 61 1008.2
20260504032929 69 194 0.0 0.0 0.00 0.00 0.00 58 1008.1
20260504032427 70 194 0.0 0.0 0.00 0.00 0.00 60 1008.1
20260504032147 71 197 0.0 0.0 0.00 0.00 0.00 59 1008.1
20260504031423 71 197 0.0 0.0 0.00 0.00 0.00 58 1008.0
20260504030931 72 200 0.0 0.0 0.00 0.00 0.00 58 1008.0
20260504030424 73 148 0.0 0.0 0.00 0.00 0.00 56 1007.9
20260504025919 74 148 0.0 0.0 0.00 0.00 0.00 56 1007.9
20260504025420 74 132 0.0 0.0 0.00 0.00 0.00 55 1007.9
20260504024920 75 205 0.0 2.0 0.00 0.00 0.00 51 1007.8
20260504024419 75 205 0.0 2.0 0.00 0.00 0.00 44 1007.8
20260504023918 75 187 0.0 0.0 0.00 0.00 0.00 46 1007.8
20260504023412 75 156 0.0 0.0 0.00 0.00 0.00 47 1007.8
20260504022907 76 158 0.0 0.0 0.00 0.00 0.00 47 1007.7
20260504022404 76 150 0.0 0.0 0.00 0.00 0.00 47 1007.7
20260504021903 77 132 0.0 0.0 0.00 0.00 0.00 47 1007.8
20260504021403 77 139 0.0 0.0 0.00 0.00 0.00 45 1007.8
20260504020905 77 138 0.0 5.0 0.00 0.00 0.00 44 1007.8
20260504020402 78 165 0.0 5.0 0.00 0.00 0.00 44 1007.8
20260504015858 78 155 0.0 5.0 0.00 0.00 0.00 45 1007.7
20260504015359 78 150 0.0 0.0 0.00 0.00 0.00 41 1007.7
20260504014858 79 188 0.0 0.0 0.00 0.00 0.00 43 1007.8
20260504014400 79 213 0.0 0.0 0.00 0.00 0.00 41 1007.8
20260504013859 79 223 0.0 0.0 0.00 0.00 0.00 39 1007.8
20260504013627 80 193 0.0 0.0 0.00 0.00 0.00 40 1007.8
20260504012859 80 113 0.0 0.0 0.00 0.00 0.00 39 1007.8
20260504012359 80 153 0.0 0.0 0.00 0.00 0.00 37 1007.9
20260504012121 80 327 0.0 0.0 0.00 0.00 0.00 37 1007.9
20260504011358 80 292 0.0 0.0 0.00 0.00 0.00 38 1008.0
20260504010859 80 132 0.0 0.0 0.00 0.00 0.00 37 1008.0
20260504010850 80 271 0.0 0.0 0.00 0.00 0.00 37 1008.1
20260504005908 80 86 0.0 1.0 0.00 0.00 0.00 39 1008.0
20260504005358 80 295 0.0 4.0 0.00 0.00 0.00 39 1008.1
20260504005122 81 164 0.0 4.0 0.00 0.00 0.00 37 1008.2
20260504004624 81 284 0.0 0.0 0.00 0.00 0.00 39 1008.2
20260504003855 81 180 0.0 1.0 0.00 0.00 0.00 40 1008.2
20260504003346 81 201 0.0 1.0 0.00 0.00 0.00 40 1008.3
20260504002841 81 121 0.0 0.0 0.00 0.00 0.00 38 1008.3
20260504002335 81 236 0.0 0.0 0.00 0.00 0.00 40 1008.3
20260504002053 81 186 0.0 4.0 0.00 0.00 0.00 38 1008.3
20260504001318 82 172 0.0 5.0 0.00 0.00 0.00 40 1008.4
20260504000817 82 211 0.0 5.0 0.00 0.00 0.00 39 1008.4
20260504000309 82 215 0.0 10.0 0.00 0.00 0.00 39 1008.5
20260503235804 82 213 0.0 7.0 0.00 0.00 0.00 38 1008.4
20260503235257 82 202 0.0 7.0 0.00 0.00 0.00 37 1008.4
20260503234743 83 184 0.0 2.0 0.00 0.00 0.00 38 1008.5
20260503234237 83 196 0.0 0.0 0.00 0.00 0.00 39 1008.5
20260503233731 83 286 0.0 0.0 0.00 0.00 0.00 40 1008.5
20260503233227 83 322 0.0 3.0 0.00 0.00 0.00 37 1008.5
20260503232947 84 148 0.0 3.0 0.00 0.00 0.00 40 1008.6
20260503232212 84 213 0.0 2.0 0.00 0.00 0.00 40 1008.6
20260503231938 84 256 0.0 3.0 0.00 0.00 0.00 39 1008.8
20260503231159 84 126 0.0 10.0 0.00 0.00 0.00 39 1008.8
20260503230653 84 288 0.0 10.0 0.00 0.00 0.00 40 1008.7
20260503230417 84 172 0.0 1.0 0.00 0.00 0.00 44 1008.8
20260503225643 83 196 0.0 1.0 0.00 0.00 0.00 43 1008.9
20260503225136 83 157 0.0 14.0 0.00 0.00 0.00 40 1008.9
20260503224629 83 174 1.0 14.0 0.00 0.00 0.00 43 1009.0
20260503224123 83 167 0.0 8.0 0.00 0.00 0.00 41 1009.1
20260503223840 83 164 1.0 8.0 0.00 0.00 0.00 41 1009.1
20260503223112 83 177 0.0 8.0 0.00 0.00 0.00 41 1009.2
20260503222830 83 157 0.0 0.0 0.00 0.00 0.00 42 1009.2
20260503222100 83 134 0.0 6.0 0.00 0.00 0.00 42 1009.3
20260503221552 83 103 0.0 6.0 0.00 0.00 0.00 43 1009.4
20260503221049 83 126 0.0 7.0 0.00 0.00 0.00 45 1009.5
20260503220541 83 138 0.0 7.0 0.00 0.00 0.00 44 1009.5
20260503220035 83 153 0.0 7.0 0.00 0.00 0.00 42 1009.7
20260503215530 83 170 0.0 7.0 0.00 0.00 0.00 45 1009.7
20260503215023 83 140 0.0 7.0 0.00 0.00 0.00 40 1009.8
20260503214517 83 198 0.0 2.0 0.00 0.00 0.00 42 1009.9
20260503214250 83 156 0.0 1.0 0.00 0.00 0.00 41 1010.0
20260503213508 82 165 0.0 3.0 0.00 0.00 0.00 42 1010.0
20260503213008 82 144 0.0 3.0 0.00 0.00 0.00 41 1010.0
20260503212507 83 91 0.0 1.0 0.00 0.00 0.00 47 1010.1
20260503212243 83 176 0.0 2.0 0.00 0.00 0.00 42 1010.1
20260503211732 82 145 0.0 2.0 0.00 0.00 0.00 49 1010.2
20260503211006 82 192 0.0 0.0 0.00 0.00 0.00 45 1010.2
20260503210502 82 144 0.0 0.0 0.00 0.00 0.00 45 1010.3
20260503210003 82 137 0.0 0.0 0.00 0.00 0.00 44 1010.2
20260503205458 81 338 0.0 0.0 0.00 0.00 0.00 48 1010.3
20260503205220 81 333 0.0 0.0 0.00 0.00 0.00 46 1010.4
20260503204459 81 159 0.0 1.0 0.00 0.00 0.00 49 1010.3
20260503203956 80 60 0.0 1.0 0.00 0.00 0.00 50 1010.4
20260503203455 80 165 0.0 1.0 0.00 0.00 0.00 50 1010.5
20260503202954 80 265 0.0 1.0 0.00 0.00 0.00 47 1010.6
20260503202455 79 105 0.0 0.0 0.00 0.00 0.00 48 1010.6
20260503202000 79 263 0.0 0.0 0.00 0.00 0.00 50 1010.7
20260503201459 80 319 0.0 0.0 0.00 0.00 0.00 47 1010.7
20260503200954 80 11 0.0 5.0 0.00 0.00 0.00 49 1010.8
20260503200450 79 148 0.0 5.0 0.00 0.00 0.00 50 1010.8
20260503195952 79 52 0.0 0.0 0.00 0.00 0.00 48 1010.9
20260503195446 79 158 0.0 0.0 0.00 0.00 0.00 49 1011.0
20260503195204 78 40 0.0 7.0 0.00 0.00 0.00 54 1011.1
20260503194657 78 5 0.0 7.0 0.00 0.00 0.00 53 1011.1
20260503193933 78 147 0.0 2.0 0.00 0.00 0.00 55 1011.2
20260503193433 78 303 0.0 3.0 0.00 0.00 0.00 53 1011.3
20260503192932 77 300 0.0 3.0 0.00 0.00 0.00 52 1011.3
20260503192432 77 142 0.0 0.0 0.00 0.00 0.00 53 1011.5
20260503191932 77 355 0.0 0.0 0.00 0.00 0.00 52 1011.6
20260503191432 77 288 0.0 0.0 0.00 0.00 0.00 55 1011.6
20260503190931 77 0 0.0 0.0 0.00 0.00 0.00 57 1011.6
20260503190435 77 299 0.0 0.0 0.00 0.00 0.00 56 1011.7
20260503185933 77 116 0.0 1.0 0.00 0.00 0.00 55 1011.7
20260503185434 76 179 0.0 1.0 0.00 0.00 0.00 55 1011.8
20260503184933 76 322 0.0 2.0 0.00 0.00 0.00 56 1011.8
20260503184432 76 189 0.0 2.0 0.00 0.00 0.00 56 1011.8
20260503183932 76 292 0.0 0.0 0.00 0.00 0.00 60 1011.9
20260503183433 76 309 0.0 0.0 0.00 0.00 0.00 55 1012.0
20260503182933 76 173 0.0 0.0 0.00 0.00 0.00 58 1011.9
20260503182907 76 103 0.0 0.0 0.00 0.00 0.00 56 1012.1
20260503182159 75 175 0.0 0.0 0.00 0.00 0.00 56 1012.1
20260503181432 75 329 0.0 0.0 0.00 0.00 0.00 56 1012.1
20260503180930 75 312 0.0 0.0 0.00 0.00 0.00 59 1012.1
20260503180651 75 333 0.0 0.0 0.00 0.00 0.00 59 1012.1
20260503175939 74 331 0.0 0.0 0.00 0.00 0.00 59 1012.2
20260503175649 74 310 0.0 0.0 0.00 0.00 0.00 60 1012.3
20260503174929 74 216 0.0 0.0 0.00 0.00 0.00 60 1012.3
20260503174429 73 344 0.0 0.0 0.00 0.00 0.00 59 1012.4
20260503174158 72 279 0.0 0.0 0.00 0.00 0.00 59 1012.3
20260503173429 71 217 0.0 0.0 0.00 0.00 0.00 58 1012.4
20260503172927 70 202 0.0 0.0 0.00 0.00 0.00 60 1012.4
20260503172427 69 246 0.0 0.0 0.00 0.00 0.00 61 1012.5
20260503172151 68 295 0.0 1.0 0.00 0.00 0.00 68 1012.4
20260503171423 67 317 0.0 1.0 0.00 0.00 0.00 70 1012.5
20260503170920 66 82 0.0 0.0 0.00 0.00 0.00 71 1012.4
20260503170426 64 65 0.0 0.0 0.00 0.00 0.00 70 1012.5
20260503150718 50 161 0.0 0.0 0.00 0.00 0.00 95 1013.2
20260503150213 49 161 0.0 0.0 0.00 0.00 0.00 95 1013.2
20260503131045 48 182 0.0 0.0 0.00 0.00 0.00 94 1013.3
20260503130544 48 182 0.0 0.0 0.00 0.00 0.00 94 1013.3
20260503130301 48 182 0.0 0.0 0.00 0.00 0.00 94 1013.2
20260503110541 50 182 0.0 0.0 0.00 0.00 0.00 93 1013.5
20260503100201 51 182 0.0 0.0 0.00 0.00 0.00 93 1013.6